This demonstration page uses our WeatherBlox Daily Observations layout. Learn more.

Left ArrowRight Arrow

39.01783, -85.05884

Hourly Observations for June 4, 2018

Temp ( °F °C ) Dew Point ( °F °C ) Humidity (%) Winds ( mph kmh ) Pressure ( in mb ) Visibility ( mi km ) Precip ( " mm )
12:52 am 00:52 Clear 64 17.8 51 10.6 63 63 W 8 13 29.91 1013 10 16 N/A
1:52 am 01:52 Clear 63 17.2 51 10.6 65 65 W 9 15 29.91 1013 10 16 N/A
2:52 am 02:52 Clear 64 17.8 50 10 60 60 NW 3 6 29.92 1013 10 16 N/A
3:52 am 03:52 Clear 63 17.2 51 10.6 65 65 NNW 8 13 29.93 1014 10 16 N/A
4:52 am 04:52 Clear 62 16.7 51 10.6 67 67 NNW 8 13 29.94 1014 10 16 N/A
5:52 am 05:52 Clear 59 15 51 10.6 75 75 W 5 7 29.95 1014 10 16 N/A
6:52 am 06:52 Sunny 58 14.4 51 10.6 78 78 W 7 11 29.96 1014 10 16 N/A
7:52 am 07:52 Sunny 62 16.7 53 11.7 73 73 WNW 8 13 29.96 1015 10 16 N/A
8:52 am 08:52 Sunny 65 18.3 51 10.6 61 61 NW 10 17 29.98 1015 10 16 N/A
9:52 am 09:52 Mostly Sunny 67 19.4 51 10.6 57 57 NW 16 26 29.99 1016 10 16 N/A
10:52 am 10:52 Mostly Sunny 69 20.6 51 10.6 53 53 WNW 12 19 29.98 1015 10 16 N/A
11:52 am 11:52 Mostly Sunny 71 21.7 50 10 47 47 NW 14 22 29.97 1015 10 16 N/A
12:52 pm 12:52 Mostly Sunny 73 22.8 50 10 44 44 WNW 12 19 29.96 1014 10 16 N/A
1:52 pm 13:52 Mostly Sunny 74 23.3 48 8.9 40 40 WNW 13 20 29.95 1014 10 16 N/A
2:52 pm 14:52 Mostly Sunny 75 23.9 47 8.3 37 37 NW 14 22 29.94 1014 10 16 N/A
3:52 pm 15:52 Mostly Sunny 75 23.9 47 8.3 37 37 NW 16 26 29.94 1014 10 16 N/A
4:52 pm 16:52 Sunny 76 24.4 48 8.9 37 37 NNW 12 19 29.93 1014 10 16 N/A
5:52 pm 17:52 Mostly Sunny 76 24.4 47 8.3 36 36 WNW 10 17 29.92 1013 10 16 N/A
6:52 pm 18:52 Partly Cloudy 75 23.9 45 7.2 34 34 NW 9 15 29.92 1013 10 16 N/A
7:52 pm 19:52 Partly Cloudy 73 22.8 45 7.2 37 37 NW 9 15 29.91 1013 10 16 N/A
8:52 pm 20:52 Mostly Cloudy 68 20 47 8.3 47 47 W 5 7 29.92 1013 10 16 N/A
9:52 pm 21:52 Mostly Cloudy 65 18.3 48 8.9 54 54 W 5 7 29.92 1013 10 16 N/A
10:52 pm 22:52 Mostly Cloudy 64 17.8 49 9.4 58 58 W 3 6 29.93 1014 10 16 N/A
11:52 pm 23:52 Mostly Cloudy 57 13.9 49 9.4 74 74 N N/A 29.92 1013 10 16 N/A

Powered by AerisWeather